Flag for U.S.A. Weather past 2 weeks in Atlantic City, New Jersey, U.S.A.

Now
75 °F

Partly sunny.


Feels Like: 78 °F
Forecast: 64 / 76 °F
Wind: 5 mph from North

Location: Atlantic City International Airport

Current Time: Jul 29, 2014 at 1:41:16 PM

Latest Report: Jul 29, 2014 at 12:54 PM


Visibility: 10 mi

Pressure: 29.89 "Hg

Humidity: 50%

Dew point: 55 °F

Location of Atlantic CityLocation

Historic Weather in Atlantic City — Graph

°F

Atlantic City temperature yesterday

Maximum temperature yesterday: 84 °F (at 12:54 PM)
Minimum temperature yesterday: 68 °F (at 4:02 AM)
Average temperature yesterday: 77 °F

Past Weeks' High & Low Weather Summary

 TemperatureHumidityPressure
High88 °F (Jul 15, 12:54 PM)100% (Jul 15, 6:54 AM)30.23 "Hg (Jul 15, 6:54 AM)
Low58 °F (Jul 18, 5:54 AM)37% (Jul 17, 4:54 PM)29.56 "Hg (Jul 28, 5:54 AM)
Average73 °F76%29.96 "Hg
* Reported Jul 14 12:01 PM — Jul 29 11:54 AM, Atlantic City, Weather by CustomWeather, © 2014

Note: Actual official high and low records may vary slightly from our data, if they occured in-between our weather recording intervals... More about our weather records

Advertising

Atlantic City weather history for previous 24 hours

 ConditionsComfort  
Time TempWeatherWind HumidityBarometerVisibility
11:54 AM
Jul 29
75 °FPassing clouds.7 mph52%29.88 "Hg10 mi
10:54 AM73 °FSunny.7 mph57%29.88 "Hg10 mi
9:54 AM71 °FSunny.10 mph59%29.88 "Hg10 mi
8:54 AM68 °FSunny.13 mph68%29.87 "Hg10 mi
7:54 AM65 °FSunny.10 mph78%29.87 "Hg10 mi
6:54 AM62 °FClear.5 mph83%29.86 "Hg10 mi
5:54 AM61 °FClear.3 mph87%29.84 "Hg10 mi
4:54 AM62 °FClear.5 mph80%29.82 "Hg10 mi
3:54 AM63 °FClear.5 mph81%29.80 "Hg10 mi
2:54 AM64 °FClear.6 mph84%29.78 "Hg10 mi
1:54 AM65 °FClear.7 mph81%29.77 "Hg10 mi
12:54 AM67 °FClear.10 mph76%29.75 "Hg10 mi
11:54 PM
Jul 28
70 °FPassing clouds.14 mph68%29.73 "Hg10 mi
10:54 PM69 °FPassing clouds.8 mph73%29.73 "Hg10 mi
9:54 PM73 °FPassing clouds.8 mph64%29.72 "Hg10 mi
8:54 PM76 °FSunny.8 mph54%29.68 "Hg10 mi
7:54 PM78 °FScattered clouds.8 mph50%29.66 "Hg10 mi
6:54 PM81 °FPassing clouds.10 mph44%29.64 "Hg10 mi
5:54 PM83 °FPassing clouds.14 mph43%29.62 "Hg10 mi
4:54 PM82 °FBroken clouds.14 mph46%29.61 "Hg10 mi
3:54 PM82 °FBroken clouds.13 mph48%29.60 "Hg10 mi
2:54 PM82 °FScattered clouds.17 mph49%29.59 "Hg10 mi
1:54 PM83 °FScattered clouds.15 mph51%29.59 "Hg10 mi
Weather by CustomWeather, © 2014

See weather overviewHow to use our weather pages